Location: G�ppingen
(48.7089°N, 9.6563°E)
Time: 02:43:08
(UTC+02:00)

M-CUBED/EXP-1 PRIME - Pass Details

Date: 25 March 2019
Orbit: 430 x 671 km, 101.7° (Epoch: 20 April)

Event Time Altitude Azimuth Distance (km) Brightness Sun altitude
Rises 21:55:47 0° 9° (N) 2,945 ? -29.7°
Reaches altitude 10° 21:58:19 10° 355° (N) 2,061 ? -29.9°
Maximum altitude 22:01:50 23° 303° (WNW) 1,406 ? -30.4°
Drops below altitude 10° 22:05:25 10° 252° (WSW) 2,098 ? -30.8°
Sets 22:08:00 0° 238° (WSW) 3,012 ? -31.0°
